POPSAT-HIP-1

Last updated on Fri Feb 16 2018 09:56:12 GMT+0000 (Greenwich Mean Time)

1 40028U 14033U 18047.21429914 .00000446 00000-0 54055-4 0 9994 2 40028 97.9120 323.1948 0012612 217.8053 142.2271 14.88497395198771
UTC large
Height (km)
Speed (km/s)
/
Latitude / Longitude
Inclination (degrees)
Orbital Period (minutes)
Azimuth
Elevation
Range (km)
Doppler Factor

Next 0 passes for location: London (51.5072 / 0.1276)

Sorry there are no passes over London.